Regional Weather Roundup
Issued by NWS

Home | Current Version | Previous Version | Text Only | Print | Product List | Glossary Off
Versions: 1 2 3 4 5 6 7 8 9 10 11 12 13 14 15 16 17 18 19 20 21 22 23 24 25 26 27 28 29 30 31 32 33 34 35 36 37 38 39 40 41 42 43 44 45 46 47 48 49 50

000
ASUS43 KLMK 192302
RWRKY
KENTUCKY REGIONAL WEATHER ROUNDUP
NATIONAL WEATHER SERVICE LOUISVILLE KY
700 PM EDT SUN APR 19 2015

NOTE "FAIR" INDICATES FEW OR NO CLOUDS BELOW 12,000 FEET
WITH NO SIGNIFICANT WEATHER AND/OR OBSTRUCTIONS TO VISIBILITY.

KYZ001>023-026-027-061>063-070>075-200000-
WESTERN AND SOUTH CENTRAL KENTUCKY

CITY           SKY/WX    TMP DP  RH WIND       PRES   REMARKS
PADUCAH        CLOUDY    67  59  75 W12       29.53R
HENDERSON      CLOUDY    64  61  88 SW21      29.45R
OWENSBORO      CLOUDY    68  66  93 S15       29.45F
HOPKINSVILLE   LGT RAIN  65  63  93 SW16      29.55R
BOWLING GREEN  CLOUDY    67  62  84 SW12      29.53S
GLASGOW        NOT AVBL
$$

KYZ024-025-028>034-038-045-046-053-200000-
NORTH CENTRAL KENTUCKY

CITY           SKY/WX    TMP DP  RH WIND       PRES   REMARKS
LOUISVILLE/SDF LGT RAIN  68  64  87 SW10      29.47F
LOUISVILLE/LOU TSTM      67  64  90 S5        29.47F
FORT KNOX      LGT RAIN  62  60  91 S8        29.47F
$$

KYZ035>037-039>044-047>052-055>060-089>105-200000-
NORTHEAST KENTUCKY

CITY           SKY/WX    TMP DP  RH WIND       PRES   REMARKS
LEXINGTON      HVY RAIN  67  63  87 MISG      29.51F FOG
COVINGTON      CLOUDY    68  63  84 S13       29.47F
FRANKFORT      CLOUDY    68  65  90 S8        29.48F
$$

KYZ054-064>069-076>088-106>120-200000-
SOUTHEAST KENTUCKY

CITY           SKY/WX    TMP DP  RH WIND       PRES   REMARKS
JACKSON        CLOUDY    69  60  73 VRB5      29.59F
LONDON         CLOUDY    71  58  63 S10G23    29.58F
SOMERSET       NOT AVBL
MIDDLESBORO    NOT AVBL
MONTICELLO     MOCLDY    72  66  81 S10       29.57F
$$




USA.gov is the U.S. government's official web portal to all federal, state and local government web resources and services.